Flag for Germany Weather past 2 weeks in Hemer, North Rhine-Westphalia, Germany

Now
46 °F

Partly sunny.


Feels Like: 41 °F
Forecast: 33 / 51 °F
Wind: 12 mph from West

Location: Dortmund / Wickede

Current Time: Mar 27, 2015 at 3:00:08 PM

Latest Report: Mar 27, 2015 at 2:20 PM


Visibility: N/A

Pressure: 30.01 "Hg

Humidity: 66%

Dew point: 36 °F

Location of HemerLocation

Historic Weather in Hemer — Graph

°F

Hemer temperature yesterday

Maximum temperature yesterday: 48 °F (at 2:50 PM)
Minimum temperature yesterday: 39 °F (at 5:20 AM)
Average temperature yesterday: 42 °F

Past Weeks' High & Low Weather Summary

 TemperatureHumidityPressure
High61 °F (Mar 17, 2:50 PM)93% (Mar 14, 7:20 PM)30.42 "Hg (Mar 14, 7:20 PM)
Low28 °F (Mar 23, 5:20 AM)39% (Mar 17, 3:20 PM)29.62 "Hg (Mar 25, 5:50 AM)
Average43 °F74%30.12 "Hg
* Reported Mar 12 1:20 PM — Mar 27 1:50 PM, Hemer, Weather by CustomWeather, © 2015

Note: Actual official high and low records may vary slightly from our data, if they occured in-between our weather recording intervals... More about our weather records

Advertising

Hemer weather history for previous 24 hours

 ConditionsComfort  
Time TempWeatherWind HumidityBarometerVisibility
1:50 PM
Fri, Mar 27
45 °FBroken clouds.15 mph76%30.01 "HgN/A
1:20 PM45 °FPartly sunny.16 mph71%30.01 "HgN/A
12:50 PM45 °FPartly sunny.14 mph81%30.01 "HgN/A
12:20 PM41 °FSprinkles. Broken clouds.13 mph87%30.01 "Hg6 mi
11:50 AM43 °FLight rain. Partly sunny.10 mph81%29.98 "HgN/A
11:20 AM43 °FPartly sunny.16 mph81%29.98 "HgN/A
10:50 AM43 °FPartly sunny.13 mph81%29.95 "HgN/A
10:20 AM41 °FLight rain. Partly sunny.12 mph81%29.95 "HgN/A
9:50 AM41 °FBroken clouds.10 mph81%29.95 "HgN/A
9:20 AM41 °FLight rain. Broken clouds.14 mph87%29.92 "Hg5 mi
8:50 AM41 °FPartly sunny.16 mph81%29.92 "HgN/A
8:20 AM41 °FPartly sunny.17 mph81%29.89 "HgN/A
7:50 AM41 °FPartly sunny.17 mph81%29.89 "HgN/A
7:20 AM41 °FPartly sunny.15 mph81%29.89 "HgN/A
6:50 AM41 °FLight rain. Partly sunny.15 mph81%29.86 "HgN/A
6:20 AM41 °FPartly sunny.14 mph81%29.86 "HgN/A
5:50 AM41 °FSprinkles. Passing clouds.15 mph81%29.83 "HgN/A
5:20 AM41 °FLight rain. Passing clouds.15 mph81%29.83 "HgN/A
10:50 PM
Thu, Mar 26
39 °FLight rain. Passing clouds.17 mph87%29.74 "HgN/A
10:20 PM39 °FPassing clouds.16 mph81%29.71 "HgN/A
9:50 PM39 °FPassing clouds.17 mph81%29.71 "HgN/A
9:20 PM39 °FPassing clouds.14 mph81%29.71 "HgN/A
8:50 PM39 °FPartly cloudy.14 mph81%29.71 "HgN/A
8:20 PM39 °FLight rain. Partly cloudy.13 mph81%29.71 "HgN/A
7:50 PM41 °FPartly cloudy.12 mph76%29.71 "HgN/A
7:20 PM41 °FPassing clouds.12 mph70%29.71 "HgN/A
6:50 PM41 °FOvercast.13 mph70%29.71 "HgN/A
6:20 PM41 °FOvercast.12 mph70%29.71 "HgN/A
5:50 PM41 °FLight rain. Partly sunny.15 mph70%29.71 "HgN/A
5:20 PM41 °FBroken clouds.17 mph70%29.71 "HgN/A
4:50 PM43 °FLight rain. Broken clouds.14 mph66%29.71 "HgN/A
4:20 PM45 °FLight rain. Broken clouds.16 mph53%29.71 "HgN/A
3:50 PM46 °FPartly sunny.10 mph50%29.71 "HgN/A
3:20 PM46 °FSunny.13 mph46%29.71 "Hg10 mi
Weather by CustomWeather, © 2015

See weather overviewHow to use our weather pages